This demonstration page uses our WeatherBlox Daily Observations layout. Learn more.

Left ArrowRight Arrow

39.01783, -85.05884

Hourly Observations for September 11, 2018

Temp ( °F °C ) Dew Point ( °F °C ) Humidity (%) Winds ( mph kmh ) Pressure ( in mb ) Visibility ( mi km ) Precip ( " mm )
12:52 am 00:52 Cloudy 62 16.7 61 16.1 96 96 N N/A 30.08 1019 10 16 N/A
1:52 am 01:52 Cloudy 62 16.7 61 16.1 96 96 W 5 7 30.08 1019 10 16 N/A
2:52 am 02:52 Cloudy 62 16.7 60 15.6 93 93 W 6 9 30.09 1019 10 16 N/A
3:52 am 03:52 Cloudy 62 16.7 61 16.1 96 96 N N/A 30.08 1019 10 16 N/A
4:52 am 04:52 Cloudy 62 16.7 61 16.1 96 96 WNW 5 7 30.09 1019 10 16 N/A
5:52 am 05:52 Cloudy 62 16.7 61 16.1 96 96 N N/A 30.10 1019 10 16 N/A
6:52 am 06:52 Cloudy 63 17.2 61 16.1 93 93 NNW 3 6 30.11 1020 10 16 N/A
7:52 am 07:52 Cloudy 63 17.2 61 16.1 93 93 N 3 6 30.13 1020 10 16 N/A
8:52 am 08:52 Cloudy 63 17.2 61 16.1 93 93 N 6 9 30.14 1021 10 16 N/A
9:52 am 09:52 Cloudy 65 18.3 61 16.1 87 87 N 6 9 30.15 1021 10 16 N/A
10:52 am 10:52 Cloudy 66 18.9 60 15.6 81 81 ENE 6 9 30.17 1022 10 16 N/A
11:52 am 11:52 Cloudy 67 19.4 60 15.6 79 79 NE 6 9 30.18 1022 10 16 N/A
12:52 pm 12:52 Cloudy 68 20 60 15.6 76 76 ENE 5 7 30.17 1022 10 16 N/A
1:52 pm 13:52 Cloudy 68 20 58 14.4 70 70 NE 6 9 30.17 1022 10 16 N/A
2:52 pm 14:52 Cloudy 70 21.1 59 15 68 68 ENE 7 11 30.15 1021 10 16 N/A
3:52 pm 15:52 Cloudy 70 21.1 58 14.4 66 66 NE 7 11 30.14 1021 10 16 N/A
4:52 pm 16:52 Cloudy 69 20.6 58 14.4 68 68 E 8 13 30.13 1020 10 16 N/A
5:52 pm 17:52 Cloudy 69 20.6 59 15 70 70 E 6 9 30.13 1020 10 16 N/A
6:52 pm 18:52 Cloudy 67 19.4 59 15 76 76 SE 5 7 30.13 1020 10 16 N/A
7:52 pm 19:52 Cloudy 67 19.4 59 15 76 76 ESE 5 7 30.12 1020 10 16 N/A
8:52 pm 20:52 Cloudy 66 18.9 60 15.6 81 81 ESE 6 9 30.13 1020 10 16 N/A
9:52 pm 21:52 Cloudy 66 18.9 59 15 78 78 E 7 11 30.14 1021 10 16 N/A
10:52 pm 22:52 Cloudy 66 18.9 59 15 78 78 E 5 7 30.14 1021 10 16 N/A
11:52 pm 23:52 Cloudy 65 18.3 60 15.6 84 84 E 8 13 30.14 1021 10 16 N/A

Powered by AerisWeather